| time (UTC) | temp F | wind direction | speed MPH | gust MPH | rain 1hr in | rain 24hr in | rain mn in | humidity % | barometer mb |
| 20260507160523 | 55 | 360 | 1.0 | 4.0 | 0.01 | 0.07 | 0.05 | 67 | 1011.7 |
| 20260507160122 | 55 | 360 | 1.0 | 6.0 | 0.01 | 0.07 | 0.05 | 61 | 1011.7 |
| 20260507155508 | 56 | 360 | 2.0 | 6.0 | 0.01 | 0.11 | 0.05 | 62 | 1011.7 |
| 20260507155105 | 55 | 360 | 1.0 | 6.0 | 0.01 | 0.11 | 0.05 | 63 | 1011.7 |
| 20260507154612 | 56 | 360 | 2.0 | 6.0 | 0.01 | 0.11 | 0.05 | 61 | 1011.7 |
| 20260507154110 | 56 | 360 | 2.0 | 5.0 | 0.01 | 0.11 | 0.05 | 64 | 1011.8 |
| 20260507153610 | 56 | 360 | 2.0 | 5.0 | 0.01 | 0.11 | 0.05 | 67 | 1011.8 |
| 20260507153112 | 56 | 360 | 1.0 | 4.0 | 0.01 | 0.11 | 0.05 | 66 | 1011.8 |
| 20260507152613 | 56 | 360 | 1.0 | 5.0 | 0.00 | 0.10 | 0.04 | 68 | 1011.8 |
| 20260507152115 | 55 | 360 | 2.0 | 9.0 | 0.00 | 0.10 | 0.04 | 63 | 1011.8 |
| 20260507151619 | 55 | 360 | 3.0 | 9.0 | 0.00 | 0.10 | 0.04 | 68 | 1011.8 |
| 20260507151120 | 55 | 360 | 2.0 | 5.0 | 0.00 | 0.10 | 0.04 | 68 | 1012.0 |
| 20260507150518 | 55 | 360 | 1.0 | 4.0 | 0.00 | 0.10 | 0.04 | 65 | 1012.0 |
| 20260507150114 | 55 | 360 | 1.0 | 4.0 | 0.00 | 0.10 | 0.04 | 71 | 1012.0 |
| 20260507145617 | 54 | 360 | 0.0 | 3.0 | 0.00 | 0.16 | 0.04 | 75 | 1012.2 |
| 20260507145114 | 54 | 360 | 1.0 | 3.0 | 0.00 | 0.16 | 0.04 | 77 | 1012.2 |
| 20260507144619 | 54 | 360 | 1.0 | 4.0 | 0.00 | 0.16 | 0.04 | 77 | 1012.2 |
| 20260507144120 | 54 | 360 | 1.0 | 4.0 | 0.00 | 0.16 | 0.04 | 74 | 1012.3 |
| 20260507143524 | 53 | 360 | 0.0 | 3.0 | 0.00 | 0.16 | 0.04 | 77 | 1012.3 |
| 20260507143006 | 53 | 360 | 0.0 | 2.0 | 0.00 | 0.16 | 0.04 | 82 | 1012.3 |
| 20260507142607 | 53 | 360 | 0.0 | 2.0 | 0.00 | 0.16 | 0.04 | 82 | 1012.5 |
| 20260507142108 | 53 | 360 | 0.0 | 1.0 | 0.00 | 0.16 | 0.04 | 79 | 1012.5 |
| 20260507141614 | 53 | 360 | 0.0 | 3.0 | 0.00 | 0.16 | 0.04 | 81 | 1012.5 |
| 20260507141116 | 52 | 360 | 0.0 | 5.0 | 0.00 | 0.16 | 0.04 | 79 | 1012.7 |
| 20260507140504 | 52 | 360 | 0.0 | 1.0 | 0.00 | 0.16 | 0.04 | 85 | 1012.7 |
| 20260507140107 | 52 | 360 | 0.0 | 1.0 | 0.00 | 0.16 | 0.04 | 84 | 1012.7 |
| 20260507135605 | 52 | 360 | 0.0 | 2.0 | 0.00 | 0.22 | 0.04 | 84 | 1012.7 |
| 20260507135108 | 52 | 360 | 0.0 | 2.0 | 0.00 | 0.22 | 0.04 | 83 | 1012.7 |
| 20260507134608 | 52 | 360 | 0.0 | 5.0 | 0.00 | 0.22 | 0.04 | 78 | 1012.7 |
| 20260507134108 | 52 | 360 | 2.0 | 5.0 | 0.00 | 0.22 | 0.04 | 77 | 1012.7 |
| 20260507133615 | 52 | 360 | 0.0 | 4.0 | 0.00 | 0.22 | 0.04 | 81 | 1012.7 |
| 20260507133152 | 52 | 360 | 0.0 | 4.0 | 0.00 | 0.22 | 0.04 | 82 | 1012.7 |
| 20260507132618 | 52 | 360 | 1.0 | 5.0 | 0.00 | 0.22 | 0.04 | 83 | 1012.7 |
| 20260507132119 | 52 | 360 | 1.0 | 8.0 | 0.00 | 0.22 | 0.04 | 79 | 1012.7 |
| 20260507131620 | 52 | 360 | 3.0 | 8.0 | 0.00 | 0.22 | 0.04 | 81 | 1012.7 |
| 20260507131125 | 52 | 360 | 2.0 | 6.0 | 0.00 | 0.22 | 0.04 | 87 | 1012.6 |
| 20260507130515 | 52 | 360 | 1.0 | 6.0 | 0.00 | 0.22 | 0.04 | 87 | 1012.6 |
| 20260507130115 | 52 | 360 | 1.0 | 4.0 | 0.00 | 0.22 | 0.04 | 91 | 1012.6 |
| 20260507125620 | 52 | 360 | 1.0 | 4.0 | 0.00 | 0.28 | 0.04 | 92 | 1012.7 |
| 20260507125119 | 52 | 360 | 0.0 | 1.0 | 0.00 | 0.28 | 0.04 | 94 | 1012.7 |
| 20260507124504 | 52 | 360 | 0.0 | 0.0 | 0.00 | 0.28 | 0.04 | 93 | 1012.7 |
| 20260507124105 | 52 | 360 | 0.0 | 0.0 | 0.00 | 0.28 | 0.04 | 94 | 1012.7 |
| 20260507123611 | 52 | 360 | 0.0 | 0.0 | 0.01 | 0.28 | 0.04 | 93 | 1012.7 |
| 20260507123111 | 52 | 360 | 0.0 | 0.0 | 0.01 | 0.28 | 0.04 | 92 | 1012.7 |
| 20260507122614 | 52 | 360 | 0.0 | 0.0 | 0.01 | 0.28 | 0.04 | 92 | 1012.7 |
| 20260507122120 | 52 | 360 | 0.0 | 4.0 | 0.01 | 0.28 | 0.04 | 93 | 1012.7 |
| 20260507121619 | 52 | 360 | 1.0 | 4.0 | 0.01 | 0.28 | 0.04 | 93 | 1012.7 |
| 20260507121121 | 52 | 360 | 0.0 | 6.0 | 0.01 | 0.28 | 0.04 | 92 | 1012.6 |
| 20260507120512 | 52 | 360 | 1.0 | 3.0 | 0.01 | 0.28 | 0.04 | 93 | 1012.6 |
| 20260507120114 | 52 | 360 | 0.0 | 3.0 | 0.01 | 0.28 | 0.04 | 93 | 1012.6 |
| 20260507115614 | 51 | 360 | 0.0 | 3.0 | 0.01 | 0.28 | 0.04 | 93 | 1012.2 |
| 20260507115117 | 51 | 360 | 1.0 | 3.0 | 0.01 | 0.28 | 0.04 | 92 | 1012.2 |
| 20260507114617 | 51 | 360 | 0.0 | 0.0 | 0.01 | 0.28 | 0.04 | 91 | 1012.2 |
| 20260507114118 | 51 | 360 | 0.0 | 3.0 | 0.01 | 0.28 | 0.04 | 92 | 1012.1 |
| 20260507113619 | 51 | 360 | 0.0 | 3.0 | 0.00 | 0.28 | 0.03 | 94 | 1012.1 |
| 20260507113008 | 51 | 360 | 0.0 | 0.0 | 0.00 | 0.28 | 0.03 | 94 | 1012.1 |
| 20260507112603 | 51 | 360 | 0.0 | 1.0 | 0.00 | 0.28 | 0.03 | 95 | 1012.2 |
| 20260507112106 | 51 | 360 | 0.0 | 3.0 | 0.00 | 0.28 | 0.03 | 95 | 1012.2 |
| 20260507111608 | 51 | 360 | 0.0 | 3.0 | 0.00 | 0.28 | 0.03 | 96 | 1012.2 |
| 20260507111110 | 51 | 360 | 0.0 | 3.0 | 0.00 | 0.28 | 0.03 | 97 | 1012.1 |
| 20260507110506 | 51 | 360 | 0.0 | 1.0 | 0.00 | 0.28 | 0.03 | 97 | 1012.1 |
| 20260507110108 | 51 | 360 | 0.0 | 1.0 | 0.00 | 0.28 | 0.03 | 97 | 1012.1 |
| 20260507105607 | 51 | 360 | 0.0 | 2.0 | 0.00 | 0.28 | 0.03 | 96 | 1011.9 |
| 20260507105109 | 51 | 360 | 0.0 | 2.0 | 0.00 | 0.28 | 0.03 | 97 | 1011.9 |
| 20260507104609 | 51 | 360 | 0.0 | 0.0 | 0.00 | 0.28 | 0.03 | 97 | 1011.9 |
| 20260507104113 | 51 | 360 | 0.0 | 0.0 | 0.00 | 0.28 | 0.03 | 96 | 1011.9 |
| 20260507103613 | 51 | 360 | 0.0 | 0.0 | 0.00 | 0.28 | 0.03 | 96 | 1011.9 |
| 20260507103112 | 51 | 360 | 0.0 | 0.0 | 0.00 | 0.28 | 0.03 | 97 | 1011.9 |
| 20260507102619 | 51 | 360 | 0.0 | 0.0 | 0.00 | 0.28 | 0.03 | 97 | 1011.6 |
| 20260507102122 | 51 | 360 | 0.0 | 0.0 | 0.00 | 0.28 | 0.03 | 97 | 1011.6 |
| 20260507101503 | 51 | 360 | 0.0 | 0.0 | 0.00 | 0.28 | 0.03 | 97 | 1011.6 |
| 20260507101104 | 51 | 360 | 0.0 | 0.0 | 0.00 | 0.28 | 0.03 | 97 | 1011.6 |
| 20260507100516 | 51 | 360 | 0.0 | 2.0 | 0.00 | 0.28 | 0.03 | 96 | 1011.6 |
| 20260507100115 | 51 | 360 | 0.0 | 2.0 | 0.00 | 0.28 | 0.03 | 96 | 1011.6 |
| 20260507095620 | 51 | 360 | 0.0 | 2.0 | 0.00 | 0.28 | 0.03 | 96 | 1011.5 |
| 20260507095005 | 51 | 360 | 0.0 | 3.0 | 0.00 | 0.28 | 0.03 | 96 | 1011.5 |
| 20260507094603 | 51 | 360 | 0.0 | 5.0 | 0.00 | 0.28 | 0.03 | 95 | 1011.5 |
| 20260507094106 | 52 | 360 | 0.0 | 5.0 | 0.00 | 0.28 | 0.03 | 96 | 1011.3 |
| 20260507093608 | 52 | 360 | 0.0 | 3.0 | 0.01 | 0.28 | 0.03 | 95 | 1011.3 |
| 20260507093109 | 52 | 360 | 0.0 | 4.0 | 0.01 | 0.28 | 0.03 | 94 | 1011.3 |
| 20260507092613 | 52 | 360 | 0.0 | 4.0 | 0.01 | 0.28 | 0.03 | 94 | 1011.1 |
| 20260507092115 | 52 | 360 | 1.0 | 4.0 | 0.01 | 0.28 | 0.03 | 95 | 1011.1 |
| 20260507091622 | 52 | 360 | 0.0 | 6.0 | 0.01 | 0.28 | 0.03 | 97 | 1011.1 |
| 20260507091122 | 52 | 360 | 1.0 | 6.0 | 0.01 | 0.28 | 0.03 | 98 | 1011.1 |
| 20260507090512 | 52 | 360 | 2.0 | 5.0 | 0.01 | 0.28 | 0.03 | 99 | 1011.1 |
| 20260507090111 | 52 | 360 | 0.0 | 3.0 | 0.01 | 0.28 | 0.03 | 99 | 1011.1 |
| 20260507085616 | 52 | 360 | 0.0 | 3.0 | 0.01 | 0.28 | 0.03 | 99 | 1011.1 |
| 20260507085119 | 52 | 360 | 1.0 | 3.0 | 0.01 | 0.28 | 0.03 | 99 | 1011.1 |
| 20260507084619 | 53 | 360 | 0.0 | 1.0 | 0.01 | 0.28 | 0.03 | 99 | 1011.1 |
| 20260507084002 | 53 | 360 | 0.0 | 1.0 | 0.01 | 0.28 | 0.03 | 99 | 1011.1 |
| 20260507083602 | 53 | 360 | 0.0 | 1.0 | 0.00 | 0.27 | 0.02 | 99 | 1011.1 |
| 20260507083105 | 53 | 360 | 0.0 | 0.0 | 0.00 | 0.27 | 0.02 | 99 | 1011.1 |
| 20260507082607 | 53 | 360 | 0.0 | 0.0 | 0.00 | 0.27 | 0.02 | 99 | 1011.0 |
| 20260507082112 | 53 | 360 | 0.0 | 2.0 | 0.00 | 0.27 | 0.02 | 98 | 1011.0 |
| 20260507081612 | 53 | 360 | 0.0 | 2.0 | 0.00 | 0.27 | 0.02 | 98 | 1011.0 |
| 20260507081116 | 53 | 360 | 0.0 | 2.0 | 0.00 | 0.27 | 0.02 | 98 | 1010.6 |
| 20260507080504 | 53 | 360 | 0.0 | 2.0 | 0.00 | 0.27 | 0.02 | 98 | 1010.6 |
| 20260507080103 | 53 | 360 | 0.0 | 2.0 | 0.00 | 0.27 | 0.02 | 98 | 1010.6 |
| 20260507075608 | 53 | 360 | 0.0 | 1.0 | 0.00 | 0.27 | 0.02 | 98 | 1010.6 |
| 20260507075113 | 53 | 360 | 0.0 | 3.0 | 0.00 | 0.27 | 0.02 | 98 | 1010.6 |
| 20260507074616 | 53 | 360 | 0.0 | 3.0 | 0.00 | 0.27 | 0.02 | 98 | 1010.6 |
| 20260507074118 | 53 | 360 | 0.0 | 5.0 | 0.00 | 0.27 | 0.02 | 98 | 1010.3 |
| 20260507073620 | 53 | 360 | 0.0 | 5.0 | 0.01 | 0.27 | 0.02 | 98 | 1010.3 |
| 20260507073003 | 53 | 360 | 0.0 | 3.0 | 0.01 | 0.27 | 0.02 | 97 | 1010.3 |
| 20260507072603 | 53 | 360 | 0.0 | 3.0 | 0.01 | 0.27 | 0.02 | 97 | 1010.5 |
| 20260507072110 | 53 | 325 | 0.0 | 4.0 | 0.01 | 0.27 | 0.02 | 97 | 1010.5 |
| 20260507071612 | 53 | 337 | 0.0 | 6.0 | 0.01 | 0.27 | 0.02 | 97 | 1010.5 |
| 20260507071115 | 53 | 331 | 2.0 | 6.0 | 0.01 | 0.27 | 0.02 | 97 | 1010.4 |
| 20260507070508 | 53 | 9 | 2.0 | 6.0 | 0.01 | 0.27 | 0.02 | 97 | 1010.4 |
| 20260507070108 | 53 | 277 | 0.0 | 5.0 | 0.01 | 0.27 | 0.02 | 98 | 1010.4 |
| 20260507065609 | 53 | 355 | 1.0 | 5.0 | 0.01 | 0.27 | 0.02 | 98 | 1010.5 |
| 20260507065108 | 54 | 323 | 1.0 | 5.0 | 0.01 | 0.27 | 0.02 | 98 | 1010.5 |
| 20260507064612 | 54 | 326 | 1.0 | 5.0 | 0.01 | 0.27 | 0.02 | 98 | 1010.5 |
| 20260507064113 | 54 | 335 | 1.0 | 5.0 | 0.01 | 0.27 | 0.02 | 98 | 1010.5 |
| 20260507063617 | 54 | 325 | 1.0 | 6.0 | 0.00 | 0.26 | 0.01 | 98 | 1010.5 |
| 20260507063116 | 54 | 321 | 2.0 | 7.0 | 0.00 | 0.26 | 0.01 | 98 | 1010.5 |
| 20260507062615 | 54 | 344 | 3.0 | 7.0 | 0.00 | 0.26 | 0.01 | 98 | 1010.4 |
| 20260507062003 | 54 | 331 | 3.0 | 6.0 | 0.00 | 0.26 | 0.01 | 98 | 1010.4 |
| 20260507061604 | 54 | 355 | 3.0 | 5.0 | 0.00 | 0.26 | 0.01 | 98 | 1010.4 |
| 20260507061105 | 54 | 342 | 2.0 | 5.0 | 0.01 | 0.26 | 0.01 | 98 | 1010.4 |
| 20260507060516 | 54 | 332 | 1.0 | 3.0 | 0.01 | 0.26 | 0.01 | 98 | 1010.4 |
| 20260507060115 | 54 | 319 | 1.0 | 3.0 | 0.01 | 0.26 | 0.01 | 98 | 1010.4 |
| 20260507055616 | 54 | 355 | 1.0 | 3.0 | 0.01 | 0.26 | 0.01 | 97 | 1010.5 |
| 20260507055007 | 54 | 305 | 0.0 | 6.0 | 0.01 | 0.26 | 0.01 | 97 | 1010.5 |
| 20260507054606 | 54 | 334 | 2.0 | 6.0 | 0.01 | 0.26 | 0.01 | 97 | 1010.5 |
| 20260507054106 | 55 | 328 | 3.0 | 6.0 | 0.01 | 0.26 | 0.01 | 97 | 1010.6 |
| 20260507053609 | 55 | 355 | 1.0 | 7.0 | 0.01 | 0.26 | 0.01 | 97 | 1010.6 |
| 20260507053127 | 55 | 360 | 2.0 | 7.0 | 0.01 | 0.26 | 0.01 | 97 | 1010.6 |
| 20260507052612 | 55 | 325 | 2.0 | 6.0 | 0.01 | 0.26 | 0.01 | 97 | 1010.6 |
| 20260507052115 | 55 | 323 | 2.0 | 7.0 | 0.01 | 0.26 | 0.01 | 97 | 1010.6 |
| 20260507051616 | 55 | 348 | 3.0 | 7.0 | 0.01 | 0.26 | 0.01 | 97 | 1010.6 |
| 20260507051119 | 55 | 333 | 3.0 | 6.0 | 0.00 | 0.25 | 0.00 | 96 | 1010.5 |
| 20260507050508 | 55 | 360 | 0.0 | 4.0 | 0.00 | 0.25 | 0.00 | 96 | 1010.5 |
| 20260507050111 | 55 | 306 | 1.0 | 4.0 | 0.00 | 0.25 | 0.00 | 95 | 1010.5 |
| 20260507045606 | 56 | 336 | 1.0 | 5.0 | 0.00 | 0.25 | 0.00 | 94 | 1011.1 |
| 20260507045112 | 56 | 355 | 2.0 | 8.0 | 0.00 | 0.25 | 0.00 | 94 | 1011.1 |
| 20260507044631 | 57 | 346 | 3.0 | 8.0 | 0.00 | 0.25 | 0.00 | 92 | 1011.1 |
| 20260507044114 | 57 | 348 | 2.0 | 5.0 | 0.00 | 0.25 | 0.00 | 90 | 1010.4 |
| 20260507043618 | 57 | 333 | 1.0 | 9.0 | 0.00 | 0.25 | 0.00 | 91 | 1010.4 |
| 20260507043120 | 57 | 11 | 2.0 | 10.0 | 0.00 | 0.25 | 0.00 | 89 | 1010.4 |
| 20260507042621 | 57 | 65 | 1.0 | 10.0 | 0.00 | 0.25 | 0.00 | 89 | 1010.6 |
| 20260507042007 | 58 | 336 | 3.0 | 9.0 | 0.00 | 0.25 | 0.00 | 89 | 1010.6 |
| 20260507041603 | 58 | 23 | 3.0 | 14.0 | 0.00 | 0.25 | 0.00 | 89 | 1010.6 |
| 20260507041110 | 59 | 343 | 3.0 | 14.0 | 0.00 | 0.25 | 0.00 | 88 | 1010.5 |
| 20260507040523 | 59 | 343 | 6.0 | 14.0 | 0.00 | 0.25 | 0.00 | 88 | 1010.5 |
| 20260507040004 | 60 | 18 | 4.0 | 7.0 | 0.00 | 0.25 | 0.25 | 86 | 1010.5 |
| 20260507035603 | 60 | 342 | 2.0 | 6.0 | 0.00 | 0.25 | 0.25 | 87 | 1010.0 |
| 20260507035108 | 60 | 335 | 3.0 | 6.0 | 0.00 | 0.25 | 0.25 | 88 | 1010.0 |
| 20260507034608 | 60 | 26 | 1.0 | 5.0 | 0.00 | 0.25 | 0.25 | 87 | 1010.0 |
| 20260507034110 | 60 | 325 | 3.0 | 7.0 | 0.00 | 0.25 | 0.25 | 87 | 1010.3 |
| 20260507033613 | 60 | 351 | 2.0 | 8.0 | 0.00 | 0.25 | 0.25 | 87 | 1010.3 |
| 20260507033132 | 60 | 331 | 3.0 | 9.0 | 0.00 | 0.25 | 0.25 | 87 | 1010.3 |
| 20260507032615 | 60 | 323 | 2.0 | 9.0 | 0.00 | 0.25 | 0.25 | 86 | 1010.2 |
| 20260507032117 | 61 | 324 | 4.0 | 12.0 | 0.00 | 0.25 | 0.25 | 86 | 1010.2 |
| 20260507031619 | 61 | 338 | 4.0 | 12.0 | 0.00 | 0.25 | 0.25 | 85 | 1010.2 |
| 20260507031125 | 61 | 262 | 4.0 | 11.0 | 0.00 | 0.25 | 0.25 | 86 | 1010.0 |
| 20260507030513 | 61 | 331 | 5.0 | 11.0 | 0.00 | 0.25 | 0.25 | 86 | 1010.0 |
| 20260507030113 | 61 | 324 | 3.0 | 7.0 | 0.00 | 0.25 | 0.25 | 86 | 1010.0 |
| 20260507025614 | 61 | 355 | 4.0 | 9.0 | 0.00 | 0.25 | 0.25 | 87 | 1009.4 |
| 20260507025117 | 61 | 15 | 4.0 | 9.0 | 0.00 | 0.25 | 0.25 | 85 | 1009.4 |
| 20260507024616 | 62 | 350 | 2.0 | 7.0 | 0.00 | 0.25 | 0.25 | 85 | 1009.4 |
| 20260507024115 | 62 | 339 | 2.0 | 7.0 | 0.00 | 0.25 | 0.25 | 85 | 1009.7 |
| 20260507023506 | 62 | 338 | 3.0 | 10.0 | 0.00 | 0.25 | 0.25 | 84 | 1009.7 |
| 20260507023104 | 62 | 19 | 2.0 | 11.0 | 0.00 | 0.25 | 0.25 | 86 | 1009.7 |
| 20260507022605 | 62 | 348 | 4.0 | 11.0 | 0.00 | 0.25 | 0.25 | 86 | 1009.4 |
| 20260507022109 | 62 | 314 | 2.0 | 10.0 | 0.00 | 0.25 | 0.25 | 87 | 1009.4 |
| 20260507021608 | 62 | 302 | 3.0 | 10.0 | 0.00 | 0.25 | 0.25 | 87 | 1009.4 |
| 20260507021109 | 63 | 13 | 1.0 | 8.0 | 0.00 | 0.25 | 0.25 | 88 | 1009.2 |
| 20260507020521 | 63 | 327 | 4.0 | 8.0 | 0.00 | 0.25 | 0.25 | 89 | 1009.2 |
| 20260507020003 | 63 | 336 | 4.0 | 9.0 | 0.00 | 0.25 | 0.25 | 89 | 1009.2 |
| 20260507015603 | 63 | 342 | 4.0 | 9.0 | 0.00 | 0.25 | 0.25 | 89 | 1009.1 |
| 20260507015106 | 64 | 348 | 2.0 | 10.0 | 0.00 | 0.25 | 0.25 | 89 | 1009.1 |
| 20260507014607 | 64 | 348 | 4.0 | 10.0 | 0.00 | 0.25 | 0.25 | 89 | 1009.1 |
| 20260507014106 | 64 | 17 | 2.0 | 9.0 | 0.00 | 0.25 | 0.25 | 89 | 1009.2 |
| 20260507013608 | 64 | 22 | 0.0 | 5.0 | 0.00 | 0.25 | 0.25 | 89 | 1009.2 |
| 20260507013115 | 64 | 15 | 1.0 | 9.0 | 0.00 | 0.25 | 0.25 | 89 | 1009.2 |
| 20260507012616 | 64 | 330 | 5.0 | 9.0 | 0.00 | 0.25 | 0.25 | 89 | 1009.3 |
| 20260507012115 | 65 | 351 | 3.0 | 9.0 | 0.00 | 0.25 | 0.25 | 89 | 1009.3 |
| 20260507011617 | 65 | 34 | 3.0 | 10.0 | 0.00 | 0.25 | 0.25 | 90 | 1009.3 |
| 20260507011119 | 65 | 317 | 3.0 | 10.0 | 0.00 | 0.25 | 0.25 | 90 | 1009.0 |
| 20260507010510 | 65 | 24 | 5.0 | 8.0 | 0.00 | 0.25 | 0.25 | 90 | 1009.0 |
| 20260507010111 | 65 | 327 | 2.0 | 11.0 | 0.00 | 0.25 | 0.25 | 89 | 1009.0 |
| 20260507005615 | 65 | 319 | 3.0 | 11.0 | 0.00 | 0.25 | 0.25 | 89 | 1009.1 |
| 20260507005114 | 65 | 355 | 2.0 | 8.0 | 0.00 | 0.25 | 0.25 | 90 | 1009.1 |
| 20260507004613 | 65 | 355 | 2.0 | 6.0 | 0.00 | 0.25 | 0.25 | 93 | 1009.1 |
| 20260507004116 | 65 | 292 | 0.0 | 2.0 | 0.00 | 0.25 | 0.25 | 94 | 1008.5 |
| 20260507003614 | 65 | 243 | 0.0 | 2.0 | 0.00 | 0.25 | 0.25 | 94 | 1008.5 |
| 20260507003117 | 66 | 302 | 0.0 | 2.0 | 0.00 | 0.25 | 0.25 | 93 | 1008.5 |
| 20260507002624 | 66 | 274 | 0.0 | 2.0 | 0.00 | 0.25 | 0.25 | 93 | 1008.7 |
| 20260507002122 | 66 | 241 | 0.0 | 1.0 | 0.00 | 0.25 | 0.25 | 93 | 1008.7 |
| 20260507001505 | 66 | 311 | 0.0 | 1.0 | 0.00 | 0.25 | 0.25 | 93 | 1008.7 |
| 20260507001105 | 66 | 311 | 0.0 | 2.0 | 0.00 | 0.25 | 0.25 | 92 | 1008.4 |
| 20260507000513 | 66 | 294 | 0.0 | 5.0 | 0.00 | 0.25 | 0.25 | 92 | 1008.4 |
| 20260507000113 | 66 | 186 | 0.0 | 5.0 | 0.00 | 0.25 | 0.25 | 92 | 1008.4 |
| 20260506235614 | 66 | 175 | 1.0 | 4.0 | 0.00 | 0.25 | 0.25 | 92 | 1008.2 |
| 20260506235119 | 66 | 231 | 1.0 | 5.0 | 0.00 | 0.25 | 0.25 | 92 | 1008.2 |
| 20260506234620 | 67 | 219 | 3.0 | 5.0 | 0.00 | 0.25 | 0.25 | 91 | 1008.2 |
| 20260506234124 | 67 | 215 | 1.0 | 4.0 | 0.00 | 0.25 | 0.25 | 91 | 1008.0 |
| 20260506233621 | 67 | 215 | 2.0 | 4.0 | 0.00 | 0.25 | 0.25 | 90 | 1008.0 |
| 20260506233004 | 67 | 207 | 0.0 | 3.0 | 0.00 | 0.25 | 0.25 | 90 | 1008.0 |
| 20260506232604 | 68 | 202 | 0.0 | 3.0 | 0.00 | 0.25 | 0.25 | 89 | 1007.9 |
| 20260506232108 | 68 | 231 | 0.0 | 3.0 | 0.00 | 0.25 | 0.25 | 89 | 1007.9 |
| 20260506231615 | 68 | 209 | 1.0 | 5.0 | 0.00 | 0.25 | 0.25 | 88 | 1007.9 |
| 20260506231115 | 68 | 209 | 1.0 | 5.0 | 0.00 | 0.25 | 0.25 | 87 | 1007.8 |
| 20260506230521 | 68 | 219 | 0.0 | 3.0 | 0.00 | 0.25 | 0.25 | 87 | 1007.8 |
| 20260506230120 | 68 | 194 | 1.0 | 6.0 | 0.00 | 0.25 | 0.25 | 87 | 1007.8 |
| 20260506225508 | 69 | 175 | 3.0 | 7.0 | 0.00 | 0.25 | 0.25 | 86 | 1007.8 |
| 20260506225104 | 69 | 236 | 1.0 | 7.0 | 0.00 | 0.25 | 0.25 | 87 | 1007.8 |
| 20260506224610 | 69 | 229 | 1.0 | 6.0 | 0.00 | 0.25 | 0.25 | 87 | 1007.8 |
| 20260506224109 | 69 | 176 | 1.0 | 6.0 | 0.00 | 0.25 | 0.25 | 87 | 1007.7 |
| 20260506223609 | 69 | 228 | 3.0 | 11.0 | 0.00 | 0.25 | 0.25 | 87 | 1007.7 |
| 20260506223112 | 69 | 247 | 3.0 | 11.0 | 0.00 | 0.25 | 0.25 | 86 | 1007.7 |
| 20260506222615 | 69 | 207 | 2.0 | 7.0 | 0.00 | 0.25 | 0.25 | 86 | 1007.6 |
| 20260506222118 | 69 | 217 | 3.0 | 9.0 | 0.00 | 0.25 | 0.25 | 85 | 1007.6 |
| 20260506221624 | 70 | 180 | 1.0 | 8.0 | 0.00 | 0.25 | 0.25 | 86 | 1007.6 |
| 20260506221127 | 70 | 246 | 1.0 | 6.0 | 0.00 | 0.25 | 0.25 | 86 | 1007.5 |
| 20260506220514 | 70 | 188 | 2.0 | 8.0 | 0.00 | 0.25 | 0.25 | 85 | 1007.5 |
| 20260506220117 | 70 | 255 | 2.0 | 10.0 | 0.00 | 0.25 | 0.25 | 85 | 1007.5 |
| 20260506215618 | 69 | 198 | 2.0 | 10.0 | 0.00 | 0.25 | 0.25 | 85 | 1007.7 |
| 20260506215118 | 69 | 211 | 3.0 | 7.0 | 0.00 | 0.25 | 0.25 | 86 | 1007.7 |
| 20260506214624 | 69 | 217 | 3.0 | 7.0 | 0.00 | 0.25 | 0.25 | 86 | 1007.7 |
| 20260506214004 | 69 | 223 | 4.0 | 10.0 | 0.00 | 0.25 | 0.25 | 84 | 1007.5 |
| 20260506213603 | 69 | 209 | 3.0 | 10.0 | 0.00 | 0.25 | 0.25 | 85 | 1007.5 |
| 20260506213107 | 69 | 229 | 1.0 | 12.0 | 0.00 | 0.25 | 0.25 | 85 | 1007.5 |
| 20260506212612 | 69 | 194 | 4.0 | 12.0 | 0.00 | 0.25 | 0.25 | 84 | 1007.3 |
| 20260506212111 | 69 | 232 | 5.0 | 13.0 | 0.00 | 0.25 | 0.25 | 85 | 1007.3 |
| 20260506211617 | 69 | 154 | 3.0 | 11.0 | 0.00 | 0.25 | 0.25 | 85 | 1007.3 |
| 20260506211118 | 69 | 273 | 5.0 | 11.0 | 0.00 | 0.25 | 0.25 | 84 | 1007.1 |
| 20260506210511 | 70 | 239 | 3.0 | 11.0 | 0.00 | 0.25 | 0.25 | 83 | 1007.1 |
| 20260506210112 | 70 | 240 | 6.0 | 11.0 | 0.00 | 0.25 | 0.25 | 82 | 1007.1 |
| 20260506205613 | 71 | 195 | 5.0 | 11.0 | 0.00 | 0.25 | 0.25 | 83 | 1006.8 |
| 20260506205116 | 70 | 159 | 2.0 | 10.0 | 0.00 | 0.25 | 0.25 | 84 | 1006.8 |
| 20260506204506 | 70 | 173 | 5.0 | 12.0 | 0.00 | 0.25 | 0.25 | 85 | 1006.8 |
| 20260506204105 | 69 | 258 | 5.0 | 16.0 | 0.00 | 0.25 | 0.25 | 85 | 1007.1 |
| 20260506203606 | 69 | 244 | 6.0 | 16.0 | 0.00 | 0.25 | 0.25 | 84 | 1007.1 |
| 20260506203110 | 69 | 254 | 5.0 | 13.0 | 0.00 | 0.25 | 0.25 | 83 | 1007.1 |
| 20260506202612 | 70 | 203 | 5.0 | 12.0 | 0.00 | 0.25 | 0.25 | 82 | 1007.2 |
| 20260506202113 | 70 | 163 | 5.0 | 14.0 | 0.00 | 0.25 | 0.25 | 84 | 1007.2 |
| 20260506201615 | 70 | 198 | 8.0 | 14.0 | 0.00 | 0.25 | 0.25 | 81 | 1007.2 |
| 20260506201120 | 70 | 220 | 5.0 | 11.0 | 0.00 | 0.25 | 0.25 | 84 | 1007.2 |
| 20260506200509 | 70 | 252 | 3.0 | 8.0 | 0.00 | 0.25 | 0.25 | 84 | 1007.2 |
| 20260506200109 | 69 | 286 | 2.0 | 12.0 | 0.00 | 0.25 | 0.25 | 86 | 1007.2 |
| 20260506195611 | 69 | 203 | 5.0 | 13.0 | 0.00 | 0.25 | 0.25 | 84 | 1007.2 |
| 20260506195110 | 68 | 209 | 7.0 | 14.0 | 0.00 | 0.25 | 0.25 | 85 | 1007.2 |
| 20260506194611 | 68 | 228 | 7.0 | 14.0 | 0.00 | 0.25 | 0.25 | 86 | 1007.2 |
| 20260506194114 | 68 | 234 | 3.0 | 13.0 | 0.00 | 0.25 | 0.25 | 85 | 1007.2 |
| 20260506193616 | 69 | 219 | 4.0 | 12.0 | 0.00 | 0.25 | 0.25 | 85 | 1007.2 |
| 20260506193117 | 68 | 161 | 4.0 | 10.0 | 0.00 | 0.25 | 0.25 | 87 | 1007.2 |
| 20260506192619 | 68 | 325 | 4.0 | 17.0 | 0.00 | 0.25 | 0.25 | 85 | 1007.4 |
| 20260506192120 | 68 | 165 | 7.0 | 17.0 | 0.00 | 0.25 | 0.25 | 84 | 1007.4 |
| 20260506191510 | 68 | 207 | 7.0 | 16.0 | 0.00 | 0.25 | 0.25 | 84 | 1007.4 |
| 20260506191110 | 69 | 219 | 5.0 | 13.0 | 0.00 | 0.25 | 0.25 | 85 | 1007.3 |
| 20260506190515 | 68 | 220 | 4.0 | 16.0 | 0.00 | 0.25 | 0.25 | 85 | 1007.3 |
| 20260506190115 | 68 | 170 | 5.0 | 16.0 | 0.00 | 0.25 | 0.25 | 86 | 1007.3 |
| 20260506185616 | 68 | 199 | 6.0 | 13.0 | 0.00 | 0.25 | 0.25 | 87 | 1007.7 |
| 20260506185115 | 68 | 175 | 6.0 | 13.0 | 0.00 | 0.25 | 0.25 | 85 | 1007.7 |
| 20260506184615 | 67 | 206 | 6.0 | 13.0 | 0.00 | 0.25 | 0.25 | 86 | 1007.7 |
| 20260506184004 | 67 | 168 | 6.0 | 16.0 | 0.00 | 0.25 | 0.25 | 87 | 1007.7 |
| 20260506183605 | 67 | 214 | 7.0 | 16.0 | 0.00 | 0.25 | 0.25 | 88 | 1007.7 |
| 20260506183107 | 66 | 236 | 7.0 | 12.0 | 0.00 | 0.25 | 0.25 | 89 | 1007.7 |
| 20260506182608 | 66 | 202 | 4.0 | 12.0 | 0.00 | 0.25 | 0.25 | 88 | 1007.8 |
| 20260506182111 | 66 | 199 | 3.0 | 18.0 | 0.00 | 0.25 | 0.25 | 89 | 1007.8 |
| 20260506181614 | 66 | 233 | 5.0 | 18.0 | 0.00 | 0.25 | 0.25 | 88 | 1007.8 |
| 20260506181117 | 66 | 201 | 3.0 | 15.0 | 0.00 | 0.25 | 0.25 | 88 | 1007.9 |
| 20260506180511 | 66 | 198 | 3.0 | 13.0 | 0.00 | 0.25 | 0.25 | 89 | 1007.9 |
| 20260506180110 | 66 | 180 | 5.0 | 13.0 | 0.00 | 0.25 | 0.25 | 88 | 1007.9 |
| 20260506175610 | 66 | 158 | 4.0 | 14.0 | 0.00 | 0.25 | 0.25 | 89 | 1008.0 |
| 20260506175115 | 65 | 210 | 7.0 | 16.0 | 0.00 | 0.25 | 0.25 | 89 | 1008.0 |
| 20260506174613 | 65 | 234 | 7.0 | 16.0 | 0.00 | 0.25 | 0.25 | 89 | 1008.0 |
| 20260506174115 | 65 | 184 | 5.0 | 14.0 | 0.00 | 0.25 | 0.25 | 90 | 1008.1 |
| 20260506173615 | 65 | 213 | 5.0 | 15.0 | 0.01 | 0.25 | 0.25 | 91 | 1008.1 |
| 20260506173130 | 65 | 215 | 5.0 | 15.0 | 0.01 | 0.25 | 0.25 | 92 | 1008.1 |
| 20260506172622 | 64 | 240 | 7.0 | 17.0 | 0.01 | 0.25 | 0.25 | 91 | 1008.2 |
| 20260506172123 | 64 | 238 | 8.0 | 17.0 | 0.01 | 0.25 | 0.25 | 91 | 1008.2 |
| 20260506171505 | 64 | 234 | 3.0 | 15.0 | 0.01 | 0.25 | 0.25 | 94 | 1008.2 |
| 20260506171105 | 64 | 194 | 4.0 | 15.0 | 0.01 | 0.25 | 0.25 | 94 | 1008.3 |
| 20260506170518 | 63 | 211 | 7.0 | 17.0 | 0.02 | 0.25 | 0.25 | 93 | 1008.3 |
| 20260506170119 | 63 | 147 | 9.0 | 17.0 | 0.02 | 0.25 | 0.25 | 92 | 1008.3 |
| 20260506165619 | 63 | 184 | 8.0 | 17.0 | 0.02 | 0.25 | 0.25 | 93 | 1008.3 |
| 20260506165118 | 63 | 193 | 8.0 | 17.0 | 0.02 | 0.25 | 0.25 | 94 | 1008.3 |
| 20260506164620 | 63 | 171 | 5.0 | 13.0 | 0.03 | 0.25 | 0.25 | 95 | 1008.3 |
| 20260506164002 | 63 | 216 | 5.0 | 16.0 | 0.02 | 0.24 | 0.24 | 95 | 1008.4 |
| 20260506163601 | 63 | 225 | 4.0 | 16.0 | 0.02 | 0.24 | 0.24 | 95 | 1008.4 |
| 20260506163108 | 63 | 218 | 7.0 | 18.0 | 0.03 | 0.24 | 0.24 | 96 | 1008.4 |
| 20260506162608 | 63 | 250 | 8.0 | 20.0 | 0.03 | 0.24 | 0.24 | 96 | 1008.3 |
| 20260506162108 | 62 | 155 | 7.0 | 20.0 | 0.03 | 0.24 | 0.24 | 98 | 1008.3 |
| 20260506161643 | 62 | 219 | 7.0 | 19.0 | 0.04 | 0.24 | 0.24 | 97 | 1008.3 |
| 20260506161109 | 62 | 165 | 6.0 | 19.0 | 0.03 | 0.23 | 0.23 | 97 | 1008.4 |